Time,TemperatureF,DewpointF,PressureIn,WindDirection,WindDirectionDegrees,WindSpeedMPH,WindSpeedGustMPH,Humidity,HourlyPrecipIn,Conditions,Clouds,dailyrainin,SolarRadiationWatts/m^2,SoftwareType,DateUTC
2013-02-05 00:00:00,44.2,38.5,30.05,East,98,0.0,0.0,80,0.00,,,0.00,0.0,meteohub,2013-02-05 05:00:00,
2013-02-05 00:01:00,44.2,38.5,30.05,East,98,0.0,0.0,80,0.00,,,0.00,0.0,meteohub,2013-02-05 05:01:00,
2013-02-05 00:06:00,44.2,38.5,30.05,East,98,0.0,0.0,80,0.00,,,0.00,0.0,meteohub,2013-02-05 05:06:00,
2013-02-05 00:11:00,44.2,38.5,30.05,East,98,0.0,0.0,80,0.00,,,0.00,0.0,meteohub,2013-02-05 05:11:00,
2013-02-05 00:16:00,44.2,38.5,30.05,East,98,0.0,0.0,80,0.00,,,0.00,0.0,meteohub,2013-02-05 05:16:00,
2013-02-05 00:21:00,44.1,38.3,30.05,East,98,0.0,0.0,80,0.00,,,0.00,0.0,meteohub,2013-02-05 05:21:00,
2013-02-05 00:26:00,43.7,38.3,30.04,East,98,0.0,0.0,81,0.00,,,0.00,0.0,meteohub,2013-02-05 05:26:00,
2013-02-05 00:31:00,43.7,38.3,30.04,East,98,0.0,0.0,81,0.00,,,0.00,0.0,meteohub,2013-02-05 05:31:00,
2013-02-05 00:36:00,43.7,38.3,30.04,East,98,0.0,0.0,81,0.00,,,0.00,0.0,meteohub,2013-02-05 05:36:00,
2013-02-05 00:41:00,43.5,38.1,30.04,East,98,0.0,0.0,81,0.00,,,0.00,0.0,meteohub,2013-02-05 05:41:00,
2013-02-05 00:46:00,43.5,38.1,30.04,East,98,0.0,0.0,81,0.00,,,0.00,0.0,meteohub,2013-02-05 05:46:00,
2013-02-05 00:51:00,43.3,38.3,30.04,East,98,0.0,0.0,82,0.00,,,0.00,0.0,meteohub,2013-02-05 05:51:00,
2013-02-05 00:56:00,43.3,38.3,30.04,East,98,0.0,0.0,82,0.00,,,0.00,0.0,meteohub,2013-02-05 05:56:00,
2013-02-05 01:01:00,43.2,38.1,30.04,East,98,0.0,0.0,82,0.00,,,0.00,0.0,meteohub,2013-02-05 06:01:00,
2013-02-05 01:06:00,43.0,37.9,30.04,East,98,0.0,0.0,82,0.00,,,0.00,0.0,meteohub,2013-02-05 06:06:00,
2013-02-05 01:11:00,42.8,37.8,30.04,East,98,0.0,0.0,82,0.00,,,0.00,0.0,meteohub,2013-02-05 06:11:00,
2013-02-05 01:16:00,42.6,37.6,30.04,East,98,0.0,0.0,82,0.00,,,0.00,0.0,meteohub,2013-02-05 06:16:00,
2013-02-05 01:21:00,42.4,37.4,30.04,East,98,0.0,0.0,82,0.00,,,0.00,0.0,meteohub,2013-02-05 06:21:00,
2013-02-05 01:26:00,42.4,37.6,30.03,East,98,0.0,0.0,83,0.00,,,0.00,0.0,meteohub,2013-02-05 06:26:00,
2013-02-05 01:31:00,42.4,37.6,30.03,East,98,0.0,0.0,83,0.00,,,0.00,0.0,meteohub,2013-02-05 06:31:00,
2013-02-05 01:36:00,42.3,37.4,30.03,East,98,0.0,0.0,83,0.00,,,0.00,0.0,meteohub,2013-02-05 06:36:00,
2013-02-05 01:41:00,42.1,37.2,30.04,East,98,0.0,0.0,83,0.00,,,0.00,0.0,meteohub,2013-02-05 06:41:00,
2013-02-05 01:46:00,42.1,37.2,30.03,East,98,0.0,0.0,83,0.00,,,0.00,0.0,meteohub,2013-02-05 06:46:00,
2013-02-05 01:51:00,41.7,36.9,30.03,East,98,0.0,0.0,83,0.00,,,0.00,0.0,meteohub,2013-02-05 06:51:00,
2013-02-05 01:56:00,41.7,36.9,30.03,East,98,0.0,0.0,83,0.00,,,0.00,0.0,meteohub,2013-02-05 06:56:00,
2013-02-05 02:01:00,41.5,36.7,30.03,East,98,0.0,0.0,83,0.00,,,0.00,0.0,meteohub,2013-02-05 07:01:00,
2013-02-05 02:06:00,41.5,36.7,30.03,East,98,0.0,0.0,83,0.00,,,0.00,0.0,meteohub,2013-02-05 07:06:00,
2013-02-05 02:11:00,41.4,36.5,30.03,East,98,0.0,0.0,83,0.00,,,0.00,0.0,meteohub,2013-02-05 07:11:00,
2013-02-05 02:16:00,41.2,36.7,30.03,East,98,0.0,0.0,84,0.00,,,0.00,0.0,meteohub,2013-02-05 07:16:00,
2013-02-05 02:21:00,41.2,36.5,30.03,East,98,0.0,0.0,83,0.00,,,0.00,0.0,meteohub,2013-02-05 07:21:00,
2013-02-05 02:26:00,41.0,36.5,30.03,East,98,0.0,0.0,84,0.00,,,0.00,0.0,meteohub,2013-02-05 07:26:00,
2013-02-05 02:31:00,40.8,36.3,30.03,East,98,0.0,0.0,84,0.00,,,0.00,0.0,meteohub,2013-02-05 07:31:00,
2013-02-05 02:36:00,40.6,36.1,30.02,East,98,0.0,0.0,84,0.00,,,0.00,0.0,meteohub,2013-02-05 07:36:00,
2013-02-05 02:41:00,40.6,36.1,30.02,East,98,0.0,0.0,84,0.00,,,0.00,0.0,meteohub,2013-02-05 07:41:00,
2013-02-05 02:46:00,40.5,36.0,30.01,East,98,0.0,0.0,84,0.00,,,0.00,0.0,meteohub,2013-02-05 07:46:00,
2013-02-05 02:51:00,40.5,36.0,30.01,East,98,0.0,0.0,84,0.00,,,0.00,0.0,meteohub,2013-02-05 07:51:00,
2013-02-05 02:56:00,40.5,36.0,30.01,East,98,0.0,0.0,84,0.00,,,0.00,0.0,meteohub,2013-02-05 07:56:00,
2013-02-05 03:01:00,40.5,36.0,30.01,East,98,0.0,0.0,84,0.00,,,0.00,0.0,meteohub,2013-02-05 08:01:00,
2013-02-05 03:06:00,40.5,36.0,30.01,East,98,0.0,0.0,84,0.00,,,0.00,0.0,meteohub,2013-02-05 08:06:00,
2013-02-05 03:11:00,40.3,35.8,30.01,East,98,0.0,0.0,84,0.00,,,0.00,0.0,meteohub,2013-02-05 08:11:00,
2013-02-05 03:16:00,40.3,35.8,30.01,East,98,0.0,0.0,84,0.00,,,0.00,0.0,meteohub,2013-02-05 08:16:00,
2013-02-05 03:21:00,40.1,35.6,30.01,East,98,0.0,0.0,84,0.00,,,0.00,0.0,meteohub,2013-02-05 08:21:00,
2013-02-05 03:26:00,40.1,35.6,30.01,East,98,0.0,0.0,84,0.00,,,0.00,0.0,meteohub,2013-02-05 08:26:00,
2013-02-05 03:31:00,40.1,36.0,30.01,East,98,0.0,0.0,85,0.00,,,0.00,0.0,meteohub,2013-02-05 08:31:00,
2013-02-05 03:36:00,39.9,35.8,30.01,East,98,0.0,0.0,85,0.00,,,0.00,0.0,meteohub,2013-02-05 08:36:00,
2013-02-05 03:41:00,39.9,35.8,30.01,East,98,0.0,0.0,85,0.00,,,0.00,0.0,meteohub,2013-02-05 08:41:00,
2013-02-05 03:46:00,39.9,35.8,30.01,East,98,0.0,0.0,85,0.00,,,0.00,0.0,meteohub,2013-02-05 08:46:00,
2013-02-05 03:51:00,39.9,35.8,30.01,East,98,0.0,0.0,85,0.00,,,0.00,0.0,meteohub,2013-02-05 08:51:00,
2013-02-05 03:56:00,39.9,35.8,30.01,East,98,0.0,0.0,85,0.00,,,0.00,0.0,meteohub,2013-02-05 08:56:00,
2013-02-05 04:01:00,39.7,35.6,30.01,East,98,0.0,0.0,85,0.00,,,0.00,0.0,meteohub,2013-02-05 09:01:00,
2013-02-05 04:06:00,39.6,35.4,30.01,East,98,0.0,0.0,85,0.00,,,0.00,0.0,meteohub,2013-02-05 09:06:00,
2013-02-05 04:11:00,39.6,35.4,30.01,East,98,0.0,0.0,85,0.00,,,0.00,0.0,meteohub,2013-02-05 09:11:00,
2013-02-05 04:16:00,39.4,35.2,30.01,East,98,0.0,0.0,85,0.00,,,0.00,0.0,meteohub,2013-02-05 09:16:00,
2013-02-05 04:21:00,39.2,35.1,30.01,East,98,0.0,0.0,85,0.00,,,0.00,0.0,meteohub,2013-02-05 09:21:00,
2013-02-05 04:26:00,39.2,35.1,30.01,East,98,0.0,0.0,85,0.00,,,0.00,0.0,meteohub,2013-02-05 09:26:00,
2013-02-05 04:31:00,39.4,35.2,30.01,East,98,0.0,0.0,85,0.00,,,0.00,0.0,meteohub,2013-02-05 09:31:00,
2013-02-05 04:36:00,39.2,35.1,30.01,East,98,0.0,0.0,85,0.00,,,0.00,0.0,meteohub,2013-02-05 09:36:00,
2013-02-05 04:41:00,39.2,35.4,30.01,East,98,0.0,0.0,86,0.00,,,0.00,0.0,meteohub,2013-02-05 09:41:00,
2013-02-05 04:46:00,39.0,35.2,30.01,East,98,0.0,0.0,86,0.00,,,0.00,0.0,meteohub,2013-02-05 09:46:00,
2013-02-05 04:51:00,39.4,35.6,30.01,East,98,0.0,0.0,86,0.00,,,0.00,0.0,meteohub,2013-02-05 09:51:00,
2013-02-05 04:56:00,39.4,35.6,30.01,East,98,0.0,0.0,86,0.00,,,0.00,0.0,meteohub,2013-02-05 09:56:00,
2013-02-05 05:01:00,39.4,35.6,30.01,East,98,0.0,0.0,86,0.00,,,0.00,0.0,meteohub,2013-02-05 10:01:00,
2013-02-05 05:06:00,39.4,35.6,30.01,East,98,0.0,0.0,86,0.00,,,0.00,0.0,meteohub,2013-02-05 10:06:00,
2013-02-05 05:11:00,39.4,35.6,30.01,East,98,0.0,0.0,86,0.00,,,0.00,0.0,meteohub,2013-02-05 10:11:00,
2013-02-05 05:16:00,39.4,35.6,30.01,East,98,0.0,0.0,86,0.00,,,0.00,0.0,meteohub,2013-02-05 10:16:00,
2013-02-05 05:21:00,39.4,35.6,30.01,East,98,0.0,0.0,86,0.00,,,0.00,0.0,meteohub,2013-02-05 10:21:00,
2013-02-05 05:26:00,39.4,35.6,30.01,East,98,0.0,0.0,86,0.00,,,0.00,0.0,meteohub,2013-02-05 10:26:00,
2013-02-05 05:31:00,39.2,35.4,30.02,East,98,0.0,0.0,86,0.00,,,0.00,0.0,meteohub,2013-02-05 10:31:00,
2013-02-05 05:36:00,39.0,35.2,30.02,East,98,0.0,0.0,86,0.00,,,0.00,0.0,meteohub,2013-02-05 10:36:00,
2013-02-05 05:41:00,39.0,35.4,30.02,East,98,0.0,0.0,87,0.00,,,0.00,0.0,meteohub,2013-02-05 10:41:00,
2013-02-05 05:46:00,38.8,35.2,30.03,East,98,0.0,0.0,87,0.00,,,0.00,0.0,meteohub,2013-02-05 10:46:00,
2013-02-05 05:51:00,39.0,35.4,30.03,East,98,0.0,0.0,87,0.00,,,0.00,0.0,meteohub,2013-02-05 10:51:00,
2013-02-05 05:56:00,39.2,35.6,30.03,East,98,0.0,0.0,87,0.00,,,0.00,0.0,meteohub,2013-02-05 10:56:00,
2013-02-05 06:01:00,39.0,35.4,30.03,East,98,0.0,0.0,87,0.00,,,0.00,0.0,meteohub,2013-02-05 11:01:00,
2013-02-05 06:06:00,39.4,35.8,30.02,East,98,0.0,0.0,87,0.00,,,0.00,0.0,meteohub,2013-02-05 11:06:00,
2013-02-05 06:11:00,39.4,35.8,30.04,East,98,0.0,0.0,87,0.00,,,0.00,0.0,meteohub,2013-02-05 11:11:00,
2013-02-05 06:16:00,39.4,35.8,30.04,East,98,0.0,0.0,87,0.00,,,0.00,0.0,meteohub,2013-02-05 11:16:00,
2013-02-05 06:21:00,39.4,35.8,30.04,East,98,0.0,0.0,87,0.00,,,0.00,0.0,meteohub,2013-02-05 11:21:00,
2013-02-05 06:26:00,39.6,36.0,30.05,East,98,0.0,0.0,87,0.00,,,0.00,0.0,meteohub,2013-02-05 11:26:00,
2013-02-05 06:31:00,39.7,36.1,30.05,East,98,0.0,0.0,87,0.00,,,0.00,0.0,meteohub,2013-02-05 11:31:00,
2013-02-05 06:36:00,39.9,36.3,30.05,East,98,0.0,0.0,87,0.00,,,0.00,0.0,meteohub,2013-02-05 11:36:00,
2013-02-05 06:41:00,39.9,36.3,30.05,East,98,0.0,0.0,87,0.00,,,0.00,0.0,meteohub,2013-02-05 11:41:00,
2013-02-05 06:46:00,39.9,36.3,30.05,East,98,0.0,0.0,87,0.00,,,0.00,0.0,meteohub,2013-02-05 11:46:00,
2013-02-05 06:51:00,39.9,36.3,30.05,East,98,0.0,0.0,87,0.00,,,0.00,0.0,meteohub,2013-02-05 11:51:00,
2013-02-05 06:56:00,40.5,36.9,30.05,East,98,0.0,0.0,87,0.00,,,0.00,0.0,meteohub,2013-02-05 11:56:00,
2013-02-05 07:01:00,40.6,37.4,30.05,East,98,0.0,0.0,88,0.00,,,0.00,0.0,meteohub,2013-02-05 12:01:00,
2013-02-05 07:06:00,40.6,37.4,30.04,East,98,0.0,0.0,88,0.00,,,0.00,0.0,meteohub,2013-02-05 12:06:00,
2013-02-05 07:11:00,40.6,37.4,30.04,East,98,0.0,0.0,88,0.00,,,0.00,0.0,meteohub,2013-02-05 12:11:00,
2013-02-05 07:16:00,40.8,37.6,30.05,East,98,0.0,0.0,88,0.00,,,0.00,0.0,meteohub,2013-02-05 12:16:00,
2013-02-05 07:21:00,40.8,37.6,30.05,East,98,0.0,0.0,88,0.00,,,0.00,0.0,meteohub,2013-02-05 12:21:00,
2013-02-05 07:26:00,41.2,37.9,30.05,East,98,0.0,0.0,88,0.00,,,0.00,7.0,meteohub,2013-02-05 12:26:00,
2013-02-05 07:31:00,41.4,38.1,30.06,East,98,0.0,0.0,88,0.00,,,0.00,18.0,meteohub,2013-02-05 12:31:00,
2013-02-05 07:36:00,41.7,38.5,30.06,East,98,0.0,0.0,88,0.00,,,0.00,26.0,meteohub,2013-02-05 12:36:00,
2013-02-05 07:41:00,42.1,38.8,30.06,East,98,0.0,0.0,88,0.00,,,0.00,30.0,meteohub,2013-02-05 12:41:00,
2013-02-05 07:46:00,42.3,39.0,30.06,East,98,0.0,0.0,88,0.00,,,0.00,33.0,meteohub,2013-02-05 12:46:00,
2013-02-05 07:51:00,42.6,39.4,30.06,East,98,0.0,0.0,88,0.00,,,0.00,28.0,meteohub,2013-02-05 12:51:00,
2013-02-05 07:56:00,43.0,39.7,30.06,East,98,0.0,0.0,88,0.00,,,0.00,30.0,meteohub,2013-02-05 12:56:00,
2013-02-05 08:01:00,43.3,40.1,30.06,East,98,0.0,0.0,88,0.00,,,0.00,37.0,meteohub,2013-02-05 13:01:00,
2013-02-05 08:06:00,43.5,40.5,30.06,East,98,0.0,0.0,89,0.00,,,0.00,40.0,meteohub,2013-02-05 13:06:00,
2013-02-05 08:11:00,43.7,40.6,30.06,East,98,0.0,0.0,89,0.00,,,0.00,51.0,meteohub,2013-02-05 13:11:00,
2013-02-05 08:16:00,44.1,41.0,30.06,East,98,0.0,0.0,89,0.00,,,0.00,67.0,meteohub,2013-02-05 13:16:00,
2013-02-05 08:21:00,44.2,41.2,30.06,East,98,0.0,0.0,89,0.00,,,0.00,74.0,meteohub,2013-02-05 13:21:00,
2013-02-05 08:26:00,45.0,41.9,30.06,East,98,0.0,0.0,89,0.00,,,0.00,105.0,meteohub,2013-02-05 13:26:00,
2013-02-05 08:32:00,45.1,42.1,30.07,East,98,0.0,0.0,89,0.00,,,0.00,128.0,meteohub,2013-02-05 13:32:00,
2013-02-05 08:37:00,45.7,42.6,30.07,East,98,0.0,0.0,89,0.00,,,0.00,264.0,meteohub,2013-02-05 13:37:00,
2013-02-05 08:42:00,46.2,43.2,30.07,East,98,0.0,0.0,89,0.00,,,0.00,137.0,meteohub,2013-02-05 13:42:00,
2013-02-05 08:47:00,46.6,43.5,30.08,East,98,0.0,0.0,89,0.00,,,0.00,139.0,meteohub,2013-02-05 13:47:00,
2013-02-05 08:52:00,46.9,43.9,30.08,East,98,0.0,0.0,89,0.00,,,0.00,163.0,meteohub,2013-02-05 13:52:00,
2013-02-05 08:57:00,47.5,44.4,30.08,East,98,0.0,0.0,89,0.00,,,0.00,185.0,meteohub,2013-02-05 13:57:00,
2013-02-05 09:02:00,47.8,44.8,30.08,East,98,0.0,0.0,89,0.00,,,0.00,380.0,meteohub,2013-02-05 14:02:00,
2013-02-05 09:07:00,48.6,45.5,30.08,East,98,0.0,1.0,89,0.00,,,0.00,350.0,meteohub,2013-02-05 14:07:00,
2013-02-05 09:12:00,49.5,46.4,30.08,East,98,1.0,1.0,89,0.00,,,0.00,357.0,meteohub,2013-02-05 14:12:00,
2013-02-05 09:17:00,50.2,47.1,30.09,East,98,0.0,2.0,89,0.00,,,0.00,146.0,meteohub,2013-02-05 14:17:00,
2013-02-05 09:22:00,50.9,47.5,30.09,East,98,0.0,3.0,88,0.00,,,0.00,301.0,meteohub,2013-02-05 14:22:00,
2013-02-05 09:26:00,52.0,48.6,30.09,East,98,0.0,3.0,88,0.00,,,0.00,438.0,meteohub,2013-02-05 14:26:00,
2013-02-05 09:32:00,52.9,49.5,30.09,SSW,205,1.0,4.0,88,0.00,,,0.00,207.0,meteohub,2013-02-05 14:32:00,
2013-02-05 09:37:00,53.8,50.0,30.09,WSW,254,0.0,4.0,87,0.00,,,0.00,237.0,meteohub,2013-02-05 14:37:00,
2013-02-05 09:42:00,54.3,50.5,30.09,WSW,254,1.0,4.0,87,0.00,,,0.00,352.0,meteohub,2013-02-05 14:42:00,
2013-02-05 09:47:00,54.9,50.7,30.09,WSW,254,0.0,4.0,86,0.00,,,0.00,257.0,meteohub,2013-02-05 14:47:00,
2013-02-05 09:52:00,55.2,50.7,30.09,SW,223,0.0,4.0,85,0.00,,,0.00,325.0,meteohub,2013-02-05 14:52:00,
2013-02-05 09:57:00,55.9,51.4,30.09,SW,223,0.0,2.0,85,0.00,,,0.00,385.0,meteohub,2013-02-05 14:57:00,
2013-02-05 10:02:00,56.7,51.8,30.08,South,188,0.0,3.0,84,0.00,,,0.00,265.0,meteohub,2013-02-05 15:02:00,
2013-02-05 10:07:00,57.2,52.2,30.08,SSW,205,1.0,3.0,83,0.00,,,0.00,197.0,meteohub,2013-02-05 15:07:00,
2013-02-05 10:12:00,57.6,52.2,30.09,WNW,292,1.0,3.0,82,0.00,,,0.00,260.0,meteohub,2013-02-05 15:12:00,
2013-02-05 10:17:00,57.7,52.3,30.09,SSW,192,1.0,4.0,82,0.00,,,0.00,213.0,meteohub,2013-02-05 15:17:00,
2013-02-05 10:22:00,58.1,52.3,30.09,South,191,0.0,4.0,81,0.00,,,0.00,246.0,meteohub,2013-02-05 15:22:00,
2013-02-05 10:27:00,58.5,52.7,30.09,South,191,0.0,4.0,81,0.00,,,0.00,250.0,meteohub,2013-02-05 15:27:00,
2013-02-05 10:32:00,58.6,52.5,30.09,ESE,115,1.0,3.0,80,0.00,,,0.00,265.0,meteohub,2013-02-05 15:32:00,
2013-02-05 10:37:00,59.0,52.9,30.08,ESE,123,2.0,2.0,80,0.00,,,0.00,288.0,meteohub,2013-02-05 15:37:00,
2013-02-05 10:42:00,59.0,52.5,30.08,SW,221,0.0,3.0,79,0.00,,,0.00,313.0,meteohub,2013-02-05 15:42:00,
2013-02-05 10:47:00,59.2,52.7,30.08,SW,225,2.0,3.0,79,0.00,,,0.00,294.0,meteohub,2013-02-05 15:47:00,
2013-02-05 10:52:00,59.4,52.9,30.08,SSE,167,1.0,4.0,79,0.00,,,0.00,318.0,meteohub,2013-02-05 15:52:00,
2013-02-05 10:57:00,59.7,52.9,30.09,South,182,0.0,4.0,78,0.00,,,0.00,364.0,meteohub,2013-02-05 15:57:00,
2013-02-05 11:02:00,60.1,53.2,30.08,SSE,163,4.0,4.0,78,0.00,,,0.00,367.0,meteohub,2013-02-05 16:02:00,
2013-02-05 11:07:00,60.3,53.4,30.08,WNW,288,3.0,4.0,78,0.00,,,0.00,452.0,meteohub,2013-02-05 16:07:00,
2013-02-05 11:12:00,60.4,53.6,30.08,WSW,238,5.0,5.0,78,0.00,,,0.00,568.0,meteohub,2013-02-05 16:12:00,
2013-02-05 11:17:00,61.2,54.0,30.08,WNW,286,2.0,5.0,77,0.00,,,0.00,446.0,meteohub,2013-02-05 16:17:00,
2013-02-05 11:22:00,61.5,54.3,30.07,WNW,287,2.0,5.0,77,0.00,,,0.00,329.0,meteohub,2013-02-05 16:22:00,
2013-02-05 11:27:00,61.9,54.3,30.07,SSE,167,2.0,6.0,76,0.00,,,0.00,339.0,meteohub,2013-02-05 16:27:00,
2013-02-05 11:32:00,62.1,54.3,30.07,SSW,200,3.0,6.0,76,0.00,,,0.00,350.0,meteohub,2013-02-05 16:32:00,
2013-02-05 11:37:00,62.2,54.5,30.07,SSW,199,0.0,6.0,76,0.00,,,0.00,327.0,meteohub,2013-02-05 16:37:00,
2013-02-05 11:42:00,62.4,54.7,30.07,SSW,200,0.0,4.0,76,0.00,,,0.00,318.0,meteohub,2013-02-05 16:42:00,
2013-02-05 11:47:00,62.8,54.7,30.06,South,182,0.0,4.0,75,0.00,,,0.00,424.0,meteohub,2013-02-05 16:47:00,
2013-02-05 11:52:00,63.0,54.9,30.06,West,277,3.0,3.0,75,0.00,,,0.00,380.0,meteohub,2013-02-05 16:52:00,
2013-02-05 11:57:00,63.0,54.9,30.06,WSW,240,0.0,5.0,75,0.00,,,0.00,403.0,meteohub,2013-02-05 16:57:00,
2013-02-05 12:02:00,63.3,54.9,30.06,SW,230,0.0,5.0,74,0.00,,,0.00,977.0,meteohub,2013-02-05 17:02:00,
2013-02-05 12:07:00,63.9,55.4,30.06,WSW,240,3.0,5.0,74,0.00,,,0.00,849.0,meteohub,2013-02-05 17:07:00,
2013-02-05 12:12:00,64.0,55.6,30.06,WSW,240,0.0,6.0,74,0.00,,,0.00,545.0,meteohub,2013-02-05 17:12:00,
2013-02-05 12:17:00,64.6,55.8,30.05,West,279,9.0,9.0,73,0.00,,,0.00,877.0,meteohub,2013-02-05 17:17:00,
2013-02-05 12:22:00,64.8,55.9,30.05,WNW,298,4.0,9.0,73,0.00,,,0.00,953.0,meteohub,2013-02-05 17:22:00,
2013-02-05 12:27:00,64.8,55.9,30.05,South,170,2.0,9.0,73,0.00,,,0.00,383.0,meteohub,2013-02-05 17:27:00,
2013-02-05 12:32:00,64.9,56.1,30.04,SW,232,2.0,9.0,73,0.00,,,0.00,545.0,meteohub,2013-02-05 17:32:00,
2013-02-05 12:37:00,65.3,56.1,30.04,WSW,253,0.0,6.0,72,0.00,,,0.00,1007.0,meteohub,2013-02-05 17:37:00,
2013-02-05 12:42:00,66.0,56.3,30.04,SW,220,1.0,5.0,71,0.00,,,0.00,772.0,meteohub,2013-02-05 17:42:00,
2013-02-05 12:47:00,66.6,56.8,30.04,NE,53,0.0,9.0,71,0.00,,,0.00,918.0,meteohub,2013-02-05 17:47:00,
2013-02-05 12:52:00,66.6,56.5,30.03,SW,229,0.0,9.0,70,0.00,,,0.00,371.0,meteohub,2013-02-05 17:52:00,
2013-02-05 12:57:00,66.7,56.7,30.03,South,182,0.0,7.0,70,0.00,,,0.00,529.0,meteohub,2013-02-05 17:57:00,
2013-02-05 13:02:00,66.9,56.8,30.02,SW,221,3.0,7.0,70,0.00,,,0.00,817.0,meteohub,2013-02-05 18:02:00,
2013-02-05 13:07:00,66.9,56.5,30.02,South,184,3.0,4.0,69,0.00,,,0.00,745.0,meteohub,2013-02-05 18:07:00,
2013-02-05 13:12:00,67.3,56.8,30.02,SW,215,0.0,7.0,69,0.00,,,0.00,742.0,meteohub,2013-02-05 18:12:00,
2013-02-05 13:17:00,67.5,56.5,30.02,SSW,203,0.0,7.0,68,0.00,,,0.00,773.0,meteohub,2013-02-05 18:17:00,
2013-02-05 13:22:00,67.5,56.5,30.01,SW,223,0.0,5.0,68,0.00,,,0.00,747.0,meteohub,2013-02-05 18:22:00,
2013-02-05 13:27:00,67.6,56.7,30.01,ENE,74,2.0,5.0,68,0.00,,,0.00,698.0,meteohub,2013-02-05 18:27:00,
2013-02-05 13:32:00,67.6,56.3,30.01,WNW,286,6.0,7.0,67,0.00,,,0.00,731.0,meteohub,2013-02-05 18:32:00,
2013-02-05 13:37:00,67.5,56.1,30.01,WSW,252,1.0,7.0,67,0.00,,,0.00,332.0,meteohub,2013-02-05 18:37:00,
2013-02-05 13:42:00,67.5,56.1,30.01,WNW,292,2.0,7.0,67,0.00,,,0.00,635.0,meteohub,2013-02-05 18:42:00,
2013-02-05 13:47:00,67.5,55.8,30.00,SSE,163,2.0,7.0,66,0.00,,,0.00,635.0,meteohub,2013-02-05 18:47:00,
2013-02-05 13:52:00,67.5,55.2,30.00,SW,227,3.0,4.0,65,0.00,,,0.00,417.0,meteohub,2013-02-05 18:52:00,
2013-02-05 13:57:00,67.3,55.0,30.00,SW,226,0.0,7.0,65,0.00,,,0.00,330.0,meteohub,2013-02-05 18:57:00,
2013-02-05 14:02:00,67.5,55.2,30.00,SSW,199,1.0,7.0,65,0.00,,,0.00,735.0,meteohub,2013-02-05 19:02:00,
2013-02-05 14:07:00,67.8,55.2,30.00,South,184,1.0,7.0,64,0.00,,,0.00,531.0,meteohub,2013-02-05 19:07:00,
2013-02-05 14:12:00,68.2,55.0,30.00,WSW,237,1.0,6.0,63,0.00,,,0.00,473.0,meteohub,2013-02-05 19:12:00,
2013-02-05 14:17:00,68.2,55.0,29.99,SSE,161,1.0,7.0,63,0.00,,,0.00,659.0,meteohub,2013-02-05 19:17:00,
2013-02-05 14:22:00,68.5,55.4,29.99,WNW,286,4.0,9.0,63,0.00,,,0.00,759.0,meteohub,2013-02-05 19:22:00,
2013-02-05 14:27:00,68.7,55.2,29.99,WSW,258,1.0,9.0,62,0.00,,,0.00,647.0,meteohub,2013-02-05 19:27:00,
2013-02-05 14:32:00,68.7,55.2,29.99,West,277,0.0,7.0,62,0.00,,,0.00,577.0,meteohub,2013-02-05 19:32:00,
2013-02-05 14:37:00,69.1,55.0,29.99,West,277,3.0,7.0,61,0.00,,,0.00,599.0,meteohub,2013-02-05 19:37:00,
2013-02-05 14:42:00,69.1,55.0,30.00,West,264,1.0,6.0,61,0.00,,,0.00,585.0,meteohub,2013-02-05 19:42:00,
2013-02-05 14:47:00,69.4,55.4,29.99,South,190,0.0,7.0,61,0.00,,,0.00,527.0,meteohub,2013-02-05 19:47:00,
2013-02-05 14:52:00,69.3,54.9,29.99,West,281,3.0,14.0,60,0.00,,,0.00,582.0,meteohub,2013-02-05 19:52:00,
2013-02-05 14:57:00,69.3,54.9,30.00,SW,216,2.0,14.0,60,0.00,,,0.00,550.0,meteohub,2013-02-05 19:57:00,
2013-02-05 15:02:00,69.6,55.0,29.99,SW,220,2.0,14.0,60,0.00,,,0.00,552.0,meteohub,2013-02-05 20:02:00,
2013-02-05 15:07:00,70.0,55.0,29.99,NW,306,2.0,6.0,59,0.00,,,0.00,439.0,meteohub,2013-02-05 20:07:00,
2013-02-05 15:12:00,70.0,55.0,29.99,West,272,1.0,4.0,59,0.00,,,0.00,534.0,meteohub,2013-02-05 20:12:00,
2013-02-05 15:17:00,69.6,54.7,29.99,WNW,290,1.0,5.0,59,0.00,,,0.00,476.0,meteohub,2013-02-05 20:17:00,
2013-02-05 15:22:00,69.6,54.7,29.99,SW,227,0.0,5.0,59,0.00,,,0.00,241.0,meteohub,2013-02-05 20:22:00,
2013-02-05 15:27:00,69.6,54.1,29.99,SSE,168,0.0,5.0,58,0.00,,,0.00,206.0,meteohub,2013-02-05 20:27:00,
2013-02-05 15:32:00,69.3,53.8,29.99,South,173,0.0,5.0,58,0.00,,,0.00,202.0,meteohub,2013-02-05 20:32:00,
2013-02-05 15:37:00,68.7,53.8,29.99,South,178,3.0,6.0,59,0.00,,,0.00,246.0,meteohub,2013-02-05 20:37:00,
2013-02-05 15:42:00,69.1,54.1,29.99,SW,228,0.0,6.0,59,0.00,,,0.00,483.0,meteohub,2013-02-05 20:42:00,
2013-02-05 15:47:00,69.4,54.0,29.99,South,181,1.0,6.0,58,0.00,,,0.00,207.0,meteohub,2013-02-05 20:47:00,
2013-02-05 15:52:00,69.3,53.8,29.99,West,275,0.0,8.0,58,0.00,,,0.00,234.0,meteohub,2013-02-05 20:52:00,
2013-02-05 15:57:00,69.4,53.6,29.99,WSW,252,0.0,8.0,57,0.00,,,0.00,533.0,meteohub,2013-02-05 20:57:00,
2013-02-05 16:02:00,69.6,53.8,29.99,SE,134,4.0,5.0,57,0.00,,,0.00,211.0,meteohub,2013-02-05 21:02:00,
2013-02-05 16:07:00,68.2,52.9,29.99,South,177,1.0,7.0,58,0.00,,,0.00,290.0,meteohub,2013-02-05 21:07:00,
2013-02-05 16:12:00,67.5,52.7,29.99,SSE,154,1.0,7.0,59,0.00,,,0.00,403.0,meteohub,2013-02-05 21:12:00,
2013-02-05 16:17:00,67.3,52.5,29.98,SE,128,1.0,7.0,59,0.00,,,0.00,137.0,meteohub,2013-02-05 21:17:00,
2013-02-05 16:22:00,66.6,52.2,29.99,SE,144,3.0,10.0,60,0.00,,,0.00,186.0,meteohub,2013-02-05 21:22:00,
2013-02-05 16:27:00,65.8,51.6,29.99,South,182,0.0,10.0,60,0.00,,,0.00,160.0,meteohub,2013-02-05 21:27:00,
2013-02-05 16:32:00,65.7,51.4,29.99,SSE,148,0.0,10.0,60,0.00,,,0.00,199.0,meteohub,2013-02-05 21:32:00,
2013-02-05 16:37:00,65.5,51.3,29.99,East,84,2.0,6.0,60,0.00,,,0.00,111.0,meteohub,2013-02-05 21:37:00,
2013-02-05 16:42:00,64.9,51.1,29.99,East,82,2.0,6.0,61,0.00,,,0.00,65.0,meteohub,2013-02-05 21:42:00,
2013-02-05 16:47:00,64.8,51.1,29.99,East,83,0.0,5.0,61,0.00,,,0.00,98.0,meteohub,2013-02-05 21:47:00,
2013-02-05 16:52:00,64.8,51.1,29.99,East,84,0.0,5.0,61,0.00,,,0.00,56.0,meteohub,2013-02-05 21:52:00,
2013-02-05 16:57:00,64.6,51.3,29.99,South,175,0.0,3.0,62,0.00,,,0.00,46.0,meteohub,2013-02-05 21:57:00,
2013-02-05 17:02:00,64.4,51.1,29.99,South,170,0.0,3.0,62,0.00,,,0.00,51.0,meteohub,2013-02-05 22:02:00,
2013-02-05 17:07:00,64.4,51.1,29.99,South,170,0.0,3.0,62,0.00,,,0.00,49.0,meteohub,2013-02-05 22:07:00,
2013-02-05 17:12:00,64.6,51.3,29.99,South,178,2.0,4.0,62,0.00,,,0.00,51.0,meteohub,2013-02-05 22:12:00,
2013-02-05 17:17:00,64.9,51.6,29.99,SSW,198,1.0,4.0,62,0.00,,,0.00,42.0,meteohub,2013-02-05 22:17:00,
2013-02-05 17:22:00,65.1,51.8,29.99,WSW,238,3.0,4.0,62,0.00,,,0.00,33.0,meteohub,2013-02-05 22:22:00,
2013-02-05 17:27:00,65.1,51.8,29.99,South,170,3.0,6.0,62,0.00,,,0.00,30.0,meteohub,2013-02-05 22:27:00,
2013-02-05 17:32:00,65.3,52.0,29.99,South,182,0.0,6.0,62,0.00,,,0.00,21.0,meteohub,2013-02-05 22:32:00,
2013-02-05 17:37:00,65.1,51.8,29.99,South,182,0.0,6.0,62,0.00,,,0.00,18.0,meteohub,2013-02-05 22:37:00,
2013-02-05 17:42:00,65.1,51.8,29.99,South,182,1.0,3.0,62,0.00,,,0.00,12.0,meteohub,2013-02-05 22:42:00,
2013-02-05 17:47:00,65.1,51.8,29.99,WSW,243,0.0,3.0,62,0.00,,,0.00,9.0,meteohub,2013-02-05 22:47:00,
2013-02-05 17:53:00,64.9,51.6,29.99,WSW,242,0.0,5.0,62,0.00,,,0.00,7.0,meteohub,2013-02-05 22:53:00,
2013-02-05 17:58:00,64.8,51.4,29.99,WSW,243,0.0,5.0,62,0.00,,,0.00,5.0,meteohub,2013-02-05 22:58:00,
2013-02-05 18:03:00,64.8,51.4,29.99,WSW,242,0.0,2.0,62,0.00,,,0.00,0.0,meteohub,2013-02-05 23:03:00,
2013-02-05 18:08:00,64.2,50.9,29.99,SE,128,0.0,2.0,62,0.00,,,0.00,0.0,meteohub,2013-02-05 23:08:00,
2013-02-05 18:13:00,63.5,50.7,29.99,SE,130,1.0,4.0,63,0.00,,,0.00,0.0,meteohub,2013-02-05 23:13:00,
2013-02-05 18:18:00,62.8,50.0,29.99,SE,130,1.0,4.0,63,0.00,,,0.00,0.0,meteohub,2013-02-05 23:18:00,
2013-02-05 18:23:00,62.2,50.0,29.99,SE,130,0.0,4.0,64,0.00,,,0.00,0.0,meteohub,2013-02-05 23:23:00,
2013-02-05 18:28:00,61.7,49.5,29.99,SE,130,0.0,2.0,64,0.00,,,0.00,0.0,meteohub,2013-02-05 23:28:00,
2013-02-05 18:33:00,61.3,49.5,29.99,SE,130,1.0,2.0,65,0.00,,,0.00,0.0,meteohub,2013-02-05 23:33:00,
2013-02-05 18:38:00,61.0,49.1,29.99,SE,130,0.0,2.0,65,0.00,,,0.00,0.0,meteohub,2013-02-05 23:38:00,
2013-02-05 18:43:00,60.6,48.7,29.99,SE,130,0.0,2.0,65,0.00,,,0.00,0.0,meteohub,2013-02-05 23:43:00,
2013-02-05 18:48:00,60.4,49.1,30.00,SE,130,0.0,2.0,66,0.00,,,0.00,0.0,meteohub,2013-02-05 23:48:00,
2013-02-05 18:53:00,60.3,48.9,30.00,SE,130,0.0,2.0,66,0.00,,,0.00,0.0,meteohub,2013-02-05 23:53:00,
2013-02-05 18:58:00,60.1,48.7,30.00,SE,130,0.0,1.0,66,0.00,,,0.00,0.0,meteohub,2013-02-05 23:58:00,
2013-02-05 19:03:00,59.7,48.7,30.00,SE,130,1.0,1.0,67,0.00,,,0.00,0.0,meteohub,2013-02-06 00:03:00,
2013-02-05 19:08:00,59.5,48.6,30.00,SE,130,1.0,2.0,67,0.00,,,0.00,0.0,meteohub,2013-02-06 00:08:00,
2013-02-05 19:13:00,59.5,48.9,30.00,SE,130,0.0,2.0,68,0.00,,,0.00,0.0,meteohub,2013-02-06 00:13:00,
2013-02-05 19:18:00,59.5,48.9,30.00,SE,130,0.0,2.0,68,0.00,,,0.00,0.0,meteohub,2013-02-06 00:18:00,
2013-02-05 19:23:00,59.4,48.7,30.01,SE,130,0.0,1.0,68,0.00,,,0.00,0.0,meteohub,2013-02-06 00:23:00,
2013-02-05 19:28:00,59.4,48.7,30.01,SE,130,0.0,1.0,68,0.00,,,0.00,0.0,meteohub,2013-02-06 00:28:00,
2013-02-05 19:33:00,59.4,48.7,30.01,SE,130,0.0,1.0,68,0.00,,,0.00,0.0,meteohub,2013-02-06 00:33:00,
2013-02-05 19:38:00,59.4,48.7,30.01,SE,130,0.0,1.0,68,0.00,,,0.00,0.0,meteohub,2013-02-06 00:38:00,
2013-02-05 19:43:00,59.2,48.6,30.01,SE,130,0.0,2.0,68,0.00,,,0.00,0.0,meteohub,2013-02-06 00:43:00,
2013-02-05 19:48:00,59.0,48.4,30.02,SE,130,0.0,2.0,68,0.00,,,0.00,0.0,meteohub,2013-02-06 00:48:00,
2013-02-05 19:53:00,59.0,48.4,30.02,SE,130,0.0,2.0,68,0.00,,,0.00,0.0,meteohub,2013-02-06 00:53:00,
2013-02-05 19:58:00,59.0,48.4,30.02,SE,130,0.0,2.0,68,0.00,,,0.00,0.0,meteohub,2013-02-06 00:58:00,
2013-02-05 20:03:00,59.0,48.0,30.02,SE,130,0.0,2.0,67,0.00,,,0.00,0.0,meteohub,2013-02-06 01:03:00,
2013-02-05 20:08:00,59.0,48.0,30.02,SE,130,0.0,2.0,67,0.00,,,0.00,0.0,meteohub,2013-02-06 01:08:00,
2013-02-05 20:13:00,59.0,48.0,30.02,SE,130,0.0,2.0,67,0.00,,,0.00,0.0,meteohub,2013-02-06 01:13:00,
2013-02-05 20:18:00,59.0,48.0,30.02,SE,130,0.0,2.0,67,0.00,,,0.00,0.0,meteohub,2013-02-06 01:18:00,
2013-02-05 20:23:00,59.0,48.0,30.02,SE,130,0.0,2.0,67,0.00,,,0.00,0.0,meteohub,2013-02-06 01:23:00,
2013-02-05 20:28:00,59.0,48.0,30.02,SE,130,0.0,1.0,67,0.00,,,0.00,0.0,meteohub,2013-02-06 01:28:00,
2013-02-05 20:33:00,59.0,48.0,30.02,SE,130,0.0,2.0,67,0.00,,,0.00,0.0,meteohub,2013-02-06 01:33:00,
2013-02-05 20:38:00,58.8,47.8,30.02,SE,130,0.0,2.0,67,0.00,,,0.00,0.0,meteohub,2013-02-06 01:38:00,
2013-02-05 20:43:00,58.8,47.8,30.02,SE,130,0.0,2.0,67,0.00,,,0.00,0.0,meteohub,2013-02-06 01:43:00,
2013-02-05 20:48:00,58.8,47.8,30.02,SE,130,1.0,1.0,67,0.00,,,0.00,0.0,meteohub,2013-02-06 01:48:00,
2013-02-05 20:53:00,58.8,47.5,30.02,SE,130,0.0,1.0,66,0.00,,,0.00,0.0,meteohub,2013-02-06 01:53:00,
2013-02-05 20:58:00,58.8,47.5,30.03,SE,130,0.0,1.0,66,0.00,,,0.00,0.0,meteohub,2013-02-06 01:58:00,
2013-02-05 21:03:00,59.0,47.7,30.03,SE,130,0.0,1.0,66,0.00,,,0.00,0.0,meteohub,2013-02-06 02:03:00,
2013-02-05 21:08:00,58.8,47.5,30.03,SE,130,0.0,2.0,66,0.00,,,0.00,0.0,meteohub,2013-02-06 02:08:00,
2013-02-05 21:13:00,59.0,47.7,30.03,SE,130,0.0,2.0,66,0.00,,,0.00,0.0,meteohub,2013-02-06 02:13:00,
2013-02-05 21:18:00,59.0,47.7,30.03,SE,130,0.0,0.0,66,0.00,,,0.00,0.0,meteohub,2013-02-06 02:18:00,
2013-02-05 21:23:00,59.0,47.7,30.03,SE,130,0.0,0.0,66,0.00,,,0.00,0.0,meteohub,2013-02-06 02:23:00,
2013-02-05 21:28:00,58.8,47.5,30.03,SE,130,0.0,0.0,66,0.00,,,0.00,0.0,meteohub,2013-02-06 02:28:00,
2013-02-05 21:33:00,58.8,47.5,30.03,SE,130,0.0,1.0,66,0.00,,,0.00,0.0,meteohub,2013-02-06 02:33:00,
2013-02-05 21:38:00,58.8,47.8,30.03,SE,130,0.0,1.0,67,0.00,,,0.00,0.0,meteohub,2013-02-06 02:38:00,
2013-02-05 21:43:00,58.6,47.7,30.03,SE,130,0.0,1.0,67,0.00,,,0.00,0.0,meteohub,2013-02-06 02:43:00,
2013-02-05 21:48:00,58.6,47.7,30.04,SE,130,0.0,1.0,67,0.00,,,0.00,0.0,meteohub,2013-02-06 02:48:00,
2013-02-05 21:53:00,58.6,47.7,30.03,SE,130,0.0,1.0,67,0.00,,,0.00,0.0,meteohub,2013-02-06 02:53:00,
2013-02-05 21:59:00,58.5,48.0,30.04,SE,130,0.0,1.0,68,0.00,,,0.00,0.0,meteohub,2013-02-06 02:59:00,
2013-02-05 22:04:00,58.3,47.8,30.04,SE,130,0.0,1.0,68,0.00,,,0.00,0.0,meteohub,2013-02-06 03:04:00,
2013-02-05 22:09:00,58.3,48.2,30.04,SE,130,0.0,1.0,69,0.00,,,0.00,0.0,meteohub,2013-02-06 03:09:00,
2013-02-05 22:14:00,58.3,48.2,30.04,SE,130,0.0,1.0,69,0.00,,,0.00,0.0,meteohub,2013-02-06 03:14:00,
2013-02-05 22:19:00,58.3,48.2,30.04,SE,130,0.0,1.0,69,0.00,,,0.00,0.0,meteohub,2013-02-06 03:19:00,
2013-02-05 22:24:00,58.3,48.2,30.04,SE,130,0.0,2.0,69,0.00,,,0.00,0.0,meteohub,2013-02-06 03:24:00,
2013-02-05 22:29:00,58.3,48.6,30.04,SE,130,0.0,2.0,70,0.00,,,0.00,0.0,meteohub,2013-02-06 03:29:00,
2013-02-05 22:34:00,58.3,48.6,30.04,SE,130,0.0,2.0,70,0.00,,,0.00,0.0,meteohub,2013-02-06 03:34:00,
2013-02-05 22:39:00,58.3,48.6,30.04,SE,130,0.0,1.0,70,0.00,,,0.00,0.0,meteohub,2013-02-06 03:39:00,
2013-02-05 22:44:00,58.3,48.6,30.04,SE,130,0.0,1.0,70,0.00,,,0.00,0.0,meteohub,2013-02-06 03:44:00,
2013-02-05 22:49:00,58.3,48.9,30.03,SE,130,0.0,0.0,71,0.00,,,0.00,0.0,meteohub,2013-02-06 03:49:00,
2013-02-05 22:54:00,58.1,48.7,30.03,SE,130,0.0,0.0,71,0.00,,,0.00,0.0,meteohub,2013-02-06 03:54:00,
2013-02-05 22:59:00,58.1,48.7,30.03,SE,130,0.0,0.0,71,0.00,,,0.00,0.0,meteohub,2013-02-06 03:59:00,
2013-02-05 23:04:00,57.9,48.6,30.03,SE,130,0.0,1.0,71,0.00,,,0.00,0.0,meteohub,2013-02-06 04:04:00,
2013-02-05 23:09:00,57.9,48.9,30.04,SE,130,0.0,1.0,72,0.00,,,0.00,0.0,meteohub,2013-02-06 04:09:00,
2013-02-05 23:14:00,57.9,48.9,30.04,SE,130,0.0,1.0,72,0.00,,,0.00,0.0,meteohub,2013-02-06 04:14:00,
2013-02-05 23:19:00,57.9,48.9,30.04,SE,130,0.0,1.0,72,0.00,,,0.00,0.0,meteohub,2013-02-06 04:19:00,
2013-02-05 23:24:00,57.9,48.9,30.04,SE,130,0.0,1.0,72,0.00,,,0.00,0.0,meteohub,2013-02-06 04:24:00,
2013-02-05 23:29:00,57.9,48.9,30.04,SE,130,0.0,1.0,72,0.00,,,0.00,0.0,meteohub,2013-02-06 04:29:00,
2013-02-05 23:34:00,58.1,49.5,30.03,SE,130,0.0,1.0,73,0.00,,,0.00,0.0,meteohub,2013-02-06 04:34:00,
2013-02-05 23:39:00,58.1,49.5,30.03,SE,130,0.0,1.0,73,0.00,,,0.00,0.0,meteohub,2013-02-06 04:39:00,
2013-02-05 23:44:00,58.1,49.5,30.03,SE,130,0.0,1.0,73,0.00,,,0.00,0.0,meteohub,2013-02-06 04:44:00,
2013-02-05 23:49:00,58.1,49.5,30.03,SE,130,0.0,1.0,73,0.00,,,0.00,0.0,meteohub,2013-02-06 04:49:00,
2013-02-05 23:54:00,58.1,49.5,30.03,SE,130,0.0,1.0,73,0.00,,,0.00,0.0,meteohub,2013-02-06 04:54:00,
2013-02-05 23:59:00,57.9,49.3,30.03,SE,130,0.0,1.0,73,0.00,,,0.00,0.0,meteohub,2013-02-06 04:59:00,